Flag for U.S.A. Weather past 2 weeks in Peoria, Illinois, U.S.A.

Now
57 °F

Clear.


Feels Like: 55 °F
Forecast: 51 / 73 °F
Wind: 8 mph from East

Location: Greater Peoria Regional Airport

Current Time: Sep 19, 2014 at 2:55:04 AM

Latest Report: Sep 19, 2014 at 1:54 AM


Visibility: 8 mi

Pressure: 30.12 "Hg

Humidity: 83%

Dew point: 52 °F

Location of PeoriaLocation

Historic Weather in Peoria — Graph

°F

Peoria temperature yesterday

Maximum temperature yesterday: 75 °F (at 1:54 PM)
Minimum temperature yesterday: 51 °F (at 5:54 AM)
Average temperature yesterday: 63 °F

Past Weeks' High & Low Weather Summary

 TemperatureHumidityPressure
High89 °F (Sep 4, 4:54 PM)93% (Sep 10, 1:54 AM)30.41 "Hg (Sep 10, 1:54 AM)
Low41 °F (Sep 13, 5:54 AM)39% (Sep 8, 3:54 PM)29.58 "Hg (Sep 10, 5:54 AM)
Average63 °F73%30.09 "Hg
* Reported Sep 4 1:54 AM — Sep 19 1:54 AM, Peoria, Weather by CustomWeather, © 2014

Note: Actual official high and low records may vary slightly from our data, if they occured in-between our weather recording intervals... More about our weather records

Advertising

Peoria weather history for previous 24 hours

 ConditionsComfort  
Time TempWeatherWind HumidityBarometerVisibility
1:54 AM
Sep 19
57 °FClear.8 mph83%30.12 "Hg8 mi
12:54 AM58 °FClear.9 mph81%30.11 "Hg10 mi
11:54 PM
Sep 18
59 °FClear.9 mph78%30.11 "Hg10 mi
10:54 PM60 °FClear.9 mph69%30.11 "Hg10 mi
9:54 PM61 °FClear.6 mph65%30.10 "Hg10 mi
8:54 PM60 °FClear.5 mph69%30.09 "Hg10 mi
7:54 PM62 °FSunny.5 mph67%30.08 "Hg10 mi
6:54 PM68 °FSunny.5 mph49%30.06 "Hg10 mi
5:54 PM72 °FSunny.5 mph44%30.05 "Hg10 mi
4:54 PM74 °FSunny.6 mph40%30.06 "Hg10 mi
3:54 PM75 °FSunny.5 mph42%30.06 "Hg10 mi
2:54 PM74 °FSunny.6 mph43%30.07 "Hg10 mi
1:54 PM75 °FSunny.10 mph42%30.08 "Hg10 mi
12:54 PM74 °FSunny.9 mph45%30.10 "Hg10 mi
11:54 AM72 °FSunny.9 mph48%30.11 "Hg10 mi
10:54 AM69 °FSunny.9 mph59%30.11 "Hg10 mi
9:54 AM66 °FSunny.7 mph65%30.11 "Hg10 mi
8:54 AM59 °FSunny.5 mph81%30.11 "Hg6 mi
7:54 AM54 °FFog.6 mph90%30.09 "Hg2 mi
7:01 AM51 °FFog.3 mph89%30.09 "Hg0 mi
5:54 AM51 °FFog.No wind89%30.06 "Hg2 mi
4:54 AM52 °FFog.No wind89%30.04 "Hg4 mi
3:54 AM53 °FFog.3 mph89%30.03 "Hg3 mi
2:54 AM52 °FFog.No wind89%30.03 "Hg4 mi
Weather by CustomWeather, © 2014

See weather overviewHow to use our weather pages